User: anonymous   Login
Location: Ostrava
(49.8330°N, 18.2830°E)
Time: 10:24:41
(UTC+02:00)
Language:

Iridium 7 - Orbit

View from above orbital plane
View from above orbital plane
View from above satellite
View from above satellite

Ground track
Ground track

The orbit data is extracted from the following two-line orbital elements,

1 24793U 97020B   16272.45885494 -.00000034  00000-0 -19245-4 0  9992
2 24793  86.3938  68.3747 0001978  88.4770 271.6652 14.34213236 15686
Epoch (UTC): 28 September 2016 11:00:45
Eccentricity: 0.0001978
inclination: 86.3938°
perigee height: 776 km
apogee height: 779 km
right ascension of ascending node: 68.3747°
argument of perigee: 88.4770°
revolutions per day: 14.34213236
mean anomaly at epoch: 271.6652°
orbit number at epoch: 1568

The dashed part of the orbit path shows where the satellite is in the earth's shadow,  

DLR